ONEWEB-0310 (49096 NORAD) Tracking and Keplerian Element Data

This shows tracking and keplerian element data for the satellite.

Feedback or suggestion? Click here.




ElementValue
Catalog49096
NameONEWEB-0310
Epoch Orbit561
Epoch Day262.16668981
Epoch Year2021
RAAN356.4356
Inclination87.4571
Eccentricity0.0017794
Argument of Perigee195.5838
Mean Anonmoly199.5044
Mean Motion15.18795754
Decay Rate-0.00853653
L11 49096U 21075X 21262.16668981 -.00853653 00000-0 -44421-1 0 9999
L22 49096 87.4571 356.4356 0017794 195.5838 199.5044 15.18795754 5617

Live tracking and technical data element details for ONEWEB-0310 (NORAD 49096). ONEWEB-0310 can be tracked NOW for your location showing map with azimuth and elevation plus other details from your city location.

Track the satellite on the map from your city or location and see movement details for azimuth, elevation, latitude, longitude, range, height, and movement on the map or in text.







IsCatalogInMostPopularTable: catalog: 49096, numindb: 6
Update: records affected: 1



GetName: 49096 ONEWEB-0310

Hit Count: updated at: Fri, 24 Sep 2021 17:34:15 GMT